sat.trackr.live / text

‹ back to catalog

PELICAN-8

NORAD 69018 · 2026-100AQ

PAYLOAD ACTIVE UNKNOWN

§ Identity

Operator
Country
US
Launch date
2026-05-03
Launch site
AFWTR
Launch vehicle
Mass (kg)
RCS (m²)

Purposes: earth_obs

External: N2YO · Heavens-Above · Gunter

§ Orbital elements

Epoch: 2026-09-18T11:01:08.661792Z

Period
94.29 min
Inclination
97.3160°
Eccentricity
0.0003535
Mean motion
15.27219183 rev/d
Perigee alt
481.7 km
Apogee alt
486.6 km
Semi-major
6,862.3 km
B*
6.0331e-4
RAAN
157.7295°
Arg perigee
108.6583°
Mean anomaly
251.5040°
Rev number
2,103

§ Raw data

PELICAN-81 69018U 26100AQ  26261.45912803  .00016042  00000+0  60331-3 0  99902 69018  97.3160 157.7295 0003535 108.6583 251.5040 15.27219183 21037

JSON: /api/v1/satellites/69018 · /tle

For live sub-satellite position, see the globe view (requires WebGL).

§ Visibility from observer

Set your observer location to see the next 7 days of passes ≥ 10°. The values pass through the URL so the page stays shareable.

No JS? Fill the form by hand. The geolocation button needs JavaScript.